This is the latest recevied weather packets stored in our database for station/object DM4XI-13. If no packets are shown the sender has not sent any weather packets the latest 10 day(s).
| Time | Temp. | Humidity | Pressure | Rain* | Wind** | Luminosity | Snow |
|---|---|---|---|---|---|---|---|
| 1777489126 | 9.44° C | 32% | 1023.1 hPa | 0 mm | 0.45 m/s, 15° | 0 W/m² | - |
| 1777489065 | 9.44° C | 33% | 1023.2 hPa | 0 mm | 0.45 m/s, 341° | 0 W/m² | - |
| 1777489004 | 9.44° C | 33% | 1023.2 hPa | 0 mm | 0.45 m/s, 193° | 0 W/m² | - |
| 1777488943 | 9.44° C | 33% | 1023.1 hPa | 0 mm | 0.45 m/s, 216° | 0 W/m² | - |
| 1777488882 | 9.44° C | 32% | 1023.2 hPa | 0 mm | 1.34 m/s, 18° | 0 W/m² | - |
| 1777488821 | 9.44° C | 32% | 1023.2 hPa | 0 mm | 0.89 m/s, 91° | 0 W/m² | - |
| 1777488759 | 9.44° C | 32% | 1022.9 hPa | 0 mm | 0.45 m/s, 22° | 0 W/m² | - |
| 1777488699 | 9.44° C | 32% | 1023.1 hPa | 0 mm | 0.89 m/s, 327° | 0 W/m² | - |
| 1777488638 | 9.44° C | 32% | 1023 hPa | 0 mm | 0.45 m/s, 191° | 0 W/m² | - |
| 1777488578 | 9.44° C | 32% | 1023 hPa | 0 mm | 0.45 m/s, 271° | 0 W/m² | - |
| 1777488455 | 9.44° C | 32% | 1023.1 hPa | 0 mm | 0.89 m/s, 185° | 0 W/m² | - |
| 1777488394 | 9.44° C | 33% | 1023 hPa | 0 mm | 0 m/s | 0 W/m² | - |
| 1777488333 | 10° C | 33% | 1022.8 hPa | 0 mm | 0.89 m/s, 325° | 0 W/m² | - |
| 1777488271 | 10° C | 33% | 1022.9 hPa | 0 mm | 0.45 m/s, 199° | 0 W/m² | - |
| 1777488210 | 10° C | 32% | 1022.9 hPa | 0 mm | 0.45 m/s, 110° | 0 W/m² | - |
| 1777488149 | 10° C | 32% | 1022.9 hPa | 0 mm | 0.89 m/s, 46° | 0 W/m² | - |
| 1777488089 | 10° C | 32% | 1022.8 hPa | 0 mm | 0 m/s | 0 W/m² | - |
| 1777488028 | 10° C | 32% | 1022.9 hPa | 0 mm | 0.45 m/s, 304° | 0 W/m² | - |
| 1777487967 | 10° C | 31% | 1022.8 hPa | 0 mm | 0.45 m/s, 164° | 1 W/m² | - |
| 1777487906 | 10° C | 31% | 1022.9 hPa | 0 mm | 0.45 m/s, 144° | 1 W/m² | - |
| 1777487844 | 10° C | 31% | 1022.8 hPa | 0 mm | 1.34 m/s, 58° | 1 W/m² | - |
| 1777487783 | 10° C | 31% | 1022.7 hPa | 0 mm | 0.45 m/s, 122° | 1 W/m² | - |
| 1777487722 | 10° C | 31% | 1022.7 hPa | 0 mm | 0.89 m/s, 46° | 1 W/m² | - |
| 1777487661 | 10° C | 31% | 1022.8 hPa | 0 mm | 0.89 m/s, 140° | 1 W/m² | - |
| 1777487601 | 10.56° C | 31% | 1022.6 hPa | 0 mm | 1.34 m/s, 161° | 1 W/m² | - |
* Rain latest hour (hover to see other rain measurements)
** Current wind speed in m/s (hover to see current wind gust speed)